Dewpoint
66 67 67 68 68 68 67 67 67 67 67 68 67 66 65 67 67 68 70 70 72 72 72 73 73 74 74 75 74 74 75 75 74 74 74 74 74 75 75 74 74 74 74 74 74 74 74 74 73 73 74 74 73 73 73 72 72 71 71 71 69 69 69 69 68 68 71 70 70 71 71 72 72 74 74 73 74 75 75 76 77 75 75 76 76
66 67 67 67 67 67 67 67 67 67 67 67 67 66 65 66 66 69 69 70 71 71 72 72 73 74 74 75 75 74 75 75 74 74 74 74 73 73 74 74 74 74 74 74 74 74 74 74 74 74 74 74 73 73 73 72 72 71 72 70 70 71 70 70 69 70 69 71 72 72 72 74 73 74 74 73 74 75 75 76 75 76 75 76 77
66 67 67 67 68 68 68 68 67 67 66 66 66 66 65 65 66 67 68 70 72 72 72 72 73 73 74 74 75 75 74 74 74 74 74 74 73 73 74 74 74 74 73 74 74 74 74 74 74 74 74 74 74 73 73 73 73 72 72 72 72 72 71 71 71 70 70 71 71 71 73 74 73 74 74 74 75 76 76 76 74 74 75 75 76
65 67 67 67 67 68 68 68 67 66 66 66 66 66 66 66 66 66 67 69 71 72 72 72 73 73 73 74 74 74 74 74 74 74 74 74 74 74 74 74 74 74 74 74 74 74 74 74 73 73 74 74 74 74 74 73 74 74 73 73 73 73 73 72 71 72 71 71 73 72 73 73 74 74 73 75 75 75 75 75 75 75 75 75 76
65 66 67 67 67 67 67 67 67 67 66 66 66 66 66 66 67 65 65 66 69 71 72 73 72 73 72 73 73 74 74 74 74 74 74 74 74 73 74 74 74 74 74 74 74 74 74 74 74 74 74 73 73 73 73 74 74 73 73 73 73 73 73 73 73 72 71 71 72 73 73 73 73 73 74 75 75 75 75 75 74 75 76 76 75
65 66 66 67 67 67 68 67 67 67 67 66 66 66 66 66 67 67 65 65 66 69 71 72 72 72 72 72 73 73 74 74 74 74 74 74 74 74 74 74 74 74 74 73 74 74 74 74 74 74 74 74 73 74 74 74 74 73 73 73 73 73 74 73 73 73 72 72 72 72 74 73 73 74 75 75 74 74 75 75 75 75 76 76 75
66 66 66 66 67 67 67 68 68 67 68 67 67 66 66 65 66 67 68 66 65 65 68 70 72 71 72 72 72 73 73 74 74 74 74 74 74 74 73 73 74 74 74 73 73 73 73 74 74 74 74 74 74 74 74 74 74 74 74 74 74 73 73 73 73 73 73 72 72 72 72 73 73 73 74 74 74 74 74 73 74 75 75 76 76
65 66 67 67 68 68 68 68 68 68 68 69 68 67 66 66 66 66 68 68 66 65 65 67 69 71 71 71 72 72 73 73 74 74 74 74 74 74 74 73 73 73 74 74 74 73 73 73 73 73 74 74 74 74 74 74 74 74 74 74 74 74 73 73 73 73 72 72 72 72 73 73 73 73 73 74 73 73 73 73 73 74 75 76 76
65 65 66 67 68 68 69 69 69 69 69 69 69 68 67 67 67 67 67 67 67 67 66 65 66 68 70 71 71 71 71 72 72 73 74 74 74 73 74 74 73 73 73 73 74 74 74 73 73 73 74 75 74 74 74 74 74 74 74 74 74 74 74 74 73 73 73 72 72 73 72 72 73 73 72 73 73 72 73 73 73 74 74 73 75
65 65 65 67 68 69 69 70 69 70 69 69 69 69 68 68 67 66 66 66 68 69 68 68 66 66 67 69 70 70 71 71 71 68 69 73 74 73 74 74 74 74 74 74 73 73 73 73 73 75 73 73 73 72 70 71 73 74 74 75 75 74 74 74 73 73 73 72 72 72 72 71 72 73 72 72 73 73 73 73 72 73 73 73 74
65 65 66 67 68 69 69 69 70 70 70 69 69 69 69 68 68 68 67 67 67 68 69 68 68 67 66 67 68 69 70 70 67 65 65 67 72 74 73 74 74 74 73 74 73 73 73 74 74 75 76 74 73 70 69 68 68 69 70 73 74 74 74 73 73 73 72 72 73 72 72 72 72 73 72 72 73 73 74 74 73 72 72 71 71
65 66 66 67 68 69 69 69 70 70 70 70 70 70 69 69 69 69 68 67 67 67 67 68 69 68 67 67 67 68 69 67 64 64 64 64 67 73 73 73 73 73 73 73 73 73 73 73 73 73 74 75 75 75 73 70 67 67 67 68 69 71 72 73 74 73 73 72 72 72 72 72 73 73 72 72 73 73 74 73 73 72 72 71 71
66 67 67 67 68 69 69 69 70 70 70 70 70 70 70 69 69 68 67 67 67 67 67 67 68 68 68 68 67 67 68 65 63 62 63 63 64 69 73 73 73 73 73 73 73 74 74 74 73 73 72 75 75 75 76 75 70 67 67 67 68 67 66 66 68 74 74 74 73 73 73 73 73 73 73 74 74 74 73 72 72 72 72 72 73
67 67 68 68 69 69 69 69 69 70 70 70 70 70 70 69 69 68 68 68 68 67 66 67 67 68 68 68 68 68 68 65 62 61 61 62 63 65 72 72 73 73 73 73 73 73 73 73 74 73 73 74 75 75 75 75 75 74 73 72 72 72 69 66 65 66 70 73 74 73 74 74 73 73 74 75 74 73 73 72 72 72 72 72 73
69 69 69 69 69 69 70 70 70 70 70 70 70 70 70 70 69 69 68 68 68 68 67 67 67 67 67 67 68 67 67 63 60 60 60 60 61 63 71 72 72 72 73 73 73 73 74 73 73 73 74 74 74 74 75 75 75 75 74 73 73 73 73 72 71 70 69 70 72 73 74 75 75 75 75 76 75 74 74 74 74 73 73 73 72
71 71 70 70 70 70 70 70 70 70 70 71 70 70 70 70 70 70 69 68 68 68 68 67 67 66 66 66 66 67 67 61 60 59 59 59 60 67 71 72 72 72 72 73 73 74 74 74 73 74 73 73 72 68 71 74 74 74 74 74 74 73 73 73 68 69 72 71 72 72 72 72 70 75 75 75 75 75 74 74 74 73 72 71 71
68 70 72 72 71 71 71 71 71 71 71 71 71 70 71 71 70 71 70 69 68 68 68 67 68 67 67 67 67 67 66 63 58 57 58 58 60 68 70 71 72 72 72 72 73 73 73 74 74 73 74 73 70 65 65 71 74 73 73 73 73 72 72 73 67 64 64 64 64 65 65 64 64 63 63 65 72 73 73 72 72 72 71 70 71
66 67 68 69 72 73 73 72 72 72 72 71 71 71 71 71 71 71 70 69 68 68 68 68 68 68 67 67 66 67 67 64 57 56 57 57 62 68 69 70 71 71 72 72 72 73 73 74 75 74 73 73 66 63 63 68 73 73 73 72 72 72 72 72 71 70 63 62 62 62 63 63 63 63 63 63 63 69 72 71 71 71 71 71 71
64 65 67 69 70 71 73 74 73 72 72 72 72 72 72 72 71 71 70 70 70 70 70 69 68 69 68 67 69 67 67 65 58 56 56 56 61 69 70 70 70 71 71 72 72 73 73 74 75 73 73 71 65 63 62 67 72 73 73 72 72 71 71 72 72 72 73 71 71 70 70 67 69 69 70 66 64 69 71 71 71 71 71 71 71
64 65 66 68 70 71 72 73 74 73 73 73 73 72 72 72 72 71 71 71 70 70 70 70 69 69 69 68 68 68 68 68 66 56 55 54 57 69 70 70 70 70 71 71 71 72 72 73 72 66 64 64 62 61 60 61 71 73 73 72 72 71 72 72 73 73 73 73 73 73 73 74 73 72 72 71 69 70 70 71 71 72 72 72 72
64 65 66 67 69 71 72 73 73 73 74 73 73 73 73 72 72 72 71 71 71 71 70 70 69 69 69 69 69 68 68 68 68 57 54 54 55 61 69 70 70 70 70 71 71 71 71 72 72 67 62 61 60 59 58 57 63 72 73 72 72 71 71 72 72 74 74 74 74 73 74 74 73 73 73 73 72 71 69 70 71 71 72 72 72
63 64 65 66 68 69 71 73 74 74 74 74 74 74 74 74 73 73 72 72 72 72 71 71 70 70 70 69 69 69 69 66 68 60 55 54 54 56 67 70 70 70 70 70 70 71 71 71 71 68 61 60 59 58 56 57 58 70 72 64 64 63 70 72 73 74 74 74 74 73 73 73 73 73 73 73 73 72 72 71 70 71 72 73 73
62 62 63 64 66 67 68 69 71 74 74 75 74 74 74 74 74 74 73 73 72 72 72 71 71 70 70 70 70 70 71 70 63 67 56 54 53 54 59 65 63 71 70 69 70 70 71 71 71 67 61 58 57 57 57 56 58 64 61 60 61 62 67 71 72 73 73 72 73 73 73 73 73 73 73 73 73 74 73 73 72 72 72 73 74
61 61 62 63 64 64 66 67 69 71 73 75 75 74 74 74 74 74 73 73 72 72 72 72 71 70 70 70 70 70 71 70 66 61 63 54 53 53 54 57 61 68 70 70 70 70 71 71 70 62 58 56 56 56 57 57 62 58 57 59 60 63 68 70 70 71 71 71 72 72 72 73 73 73 73 74 73 75 74 74 74 73 73 73 73
60 60 61 62 63 63 64 65 66 68 70 73 74 74 74 74 74 74 74 73 73 72 72 72 71 71 70 70 70 70 70 71 70 66 60 57 54 53 53 55 57 59 68 70 70 70 66 62 61 59 58 57 56 57 57 56 56 57 57 58 64 67 69 70 70 71 71 71 71 72 72 72 73 73 75 75 75 74 73 72 73 74 74 73 72
60 61 61 62 62 63 63 64 65 67 69 72 74 75 74 74 73 74 73 73 73 72 72 72 71 71 71 70 70 71 71 71 71 71 64 61 57 54 54 54 56 57 62 68 64 63 62 60 59 59 59 61 64 66 67 67 59 57 59 61 66 68 69 70 71 71 71 71 71 71 72 73 73 74 75 75 74 73 72 71 70 70 70 69 68
61 61 61 61 62 63 64 64 66 68 71 73 74 74 75 74 74 73 73 72 72 72 72 71 71 71 71 71 71 71 71 70 71 70 71 68 66 62 57 58 56 56 61 65 65 67 66 66 66 62 64 63 64 65 65 67 66 64 63 65 67 68 69 70 71 71 71 71 71 71 72 73 74 74 74 73 73 73 72 71 70 69 68 67 67
59 60 61 62 62 63 64 66 67 68 70 72 73 74 74 74 73 73 73 73 72 72 72 71 71 71 71 71 71 71 70 70 71 70 70 70 68 67 63 62 61 61 61 64 67 68 69 67 66 70 70 70 69 69 70 70 70 68 66 66 66 67 69 70 71 71 72 72 72 73 73 73 73 73 73 73 73 72 71 70 70 69 66 66 66
58 59 61 63 62 63 64 65 66 68 69 70 70 72 73 73 74 74 74 74 73 72 72 72 71 71 71 71 71 70 70 70 71 64 70 63 67 69 66 64 64 64 61 59 66 68 69 71 71 71 70 70 70 70 70 70 70 70 70 68 68 68 69 69 69 70 71 71 71 72 72 72 72 73 72 72 72 71 70 70 70 69 66 66 65
57 58 60 61 61 60 62 63 65 66 67 68 69 71 69 63 68 74 74 68 65 63 64 71 72 72 72 72 72 71 71 71 63 58 57 56 56 59 59 58 58 62 60 56 63 68 68 69 69 69 70 70 70 70 70 70 70 70 70 67 68 68 68 68 69 70 71 70 71 71 71 72 72 72 72 71 72 71 68 66 68 67 65 64 64
57 57 58 59 60 60 60 62 64 66 68 69 69 70 71 71 58 57 62 67 62 58 55 58 60 62 71 73 71 63 62 62 60 56 54 54 54 54 54 54 54 54 55 61 65 67 68 68 68 69 69 70 70 70 70 70 70 70 70 70 69 69 67 68 69 69 69 70 70 71 71 71 71 72 71 71 71 71 68 68 68 66 65 64 64
56 57 57 57 59 60 60 61 63 64 66 68 69 70 70 71 72 61 56 56 57 54 54 55 55 55 57 62 69 72 63 56 56 54 53 53 52 52 52 51 51 51 52 56 65 66 67 68 68 68 69 69 69 70 70 70 70 70 70 70 70 69 69 69 69 70 70 70 70 70 71 71 71 72 71 71 70 71 69 67 67 66 65 64 64
56 56 57 58 59 60 60 60 60 61 62 63 65 68 69 70 71 72 72 57 52 53 53 52 51 52 53 52 52 57 62 61 55 53 52 51 51 51 51 50 49 49 51 62 67 67 67 68 68 69 69 69 69 70 70 70 70 71 71 71 71 70 70 70 70 70 70 70 71 71 71 71 71 71 71 70 70 70 69 68 68 66 65 64 63
56 57 58 59 59 59 59 59 59 59 61 62 63 65 67 69 70 71 72 73 72 62 53 50 50 51 50 51 53 52 51 51 51 52 52 52 50 50 49 53 46 47 56 65 66 67 67 67 68 68 69 69 69 70 70 71 72 72 72 72 72 72 72 71 71 70 69 70 70 70 70 71 71 71 71 71 70 70 69 68 67 66 65 64 63
55 58 59 59 58 57 57 57 57 58 59 60 62 64 65 66 68 69 70 72 72 72 73 72 59 51 61 57 51 50 51 51 51 50 50 51 49 48 51 60 60 58 58 62 66 67 67 67 67 68 69 69 69 69 71 71 72 72 72 72 72 72 72 71 70 70 70 70 70 70 70 70 71 70 70 70 69 69 69 68 67 66 65 64 64
55 55 55 55 55 55 56 56 57 58 58 59 61 62 65 66 67 68 69 71 72 72 72 73 74 64 53 53 54 52 50 50 50 49 49 48 47 52 64 66 66 64 61 62 64 66 67 67 68 68 69 69 69 71 72 72 72 72 72 72 71 71 71 71 70 70 70 70 70 69 69 70 71 70 71 70 69 69 68 67 66 65 65 65 64
55 55 54 54 54 55 55 56 56 57 58 59 60 61 63 65 67 68 69 70 71 73 73 74 73 73 64 63 59 52 50 49 49 49 49 47 47 59 67 68 68 67 65 63 64 65 67 68 68 69 69 69 70 71 72 72 72 72 69 72 72 71 71 71 71 70 70 70 70 70 70 70 70 70 70 69 68 68 68 67 66 64 64 63 61
54 54 54 53 54 54 55 55 56 56 59 60 61 62 63 65 66 68 68 68 69 70 71 73 70 73 73 73 70 67 61 50 48 48 47 45 51 61 65 68 68 68 67 66 65 66 67 68 69 69 70 71 71 71 72 72 72 72 72 72 72 72 67 70 69 71 71 71 70 70 70 70 70 70 69 69 68 67 67 66 66 65 64 62 62
54 53 53 53 54 54 54 55 56 57 58 59 59 59 60 62 65 67 68 68 68 69 69 71 72 72 72 73 73 68 63 64 64 65 62 59 59 61 63 65 67 68 69 68 67 66 67 68 68 69 70 71 71 71 72 72 72 72 72 72 72 71 71 71 71 71 70 70 70 70 70 70 70 70 69 69 68 68 67 66 66 65 63 62 63
52 52 52 53 54 54 54 55 56 57 57 56 56 57 58 60 61 64 67 68 68 68 68 68 69 70 71 72 71 68 69 68 67 68 68 66 63 62 63 64 66 67 68 69 68 67 67 68 68 69 70 71 71 71 72 72 72 72 72 72 71 71 71 71 71 71 70 70 70 70 70 70 70 70 70 69 69 69 68 66 65 64 64 64 63
51 51 54 53 52 53 53 54 54 54 54 55 55 56 56 58 59 61 63 66 67 67 67 67 68 69 69 68 61 60 69 70 70 70 70 70 69 66 64 65 65 66 68 69 69 67 67 67 67 68 69 70 71 71 72 72 71 71 71 71 71 70 71 71 71 70 70 70 70 70 70 70 69 69 68 68 65 66 66 66 64 64 63 62 63
50 51 52 52 52 52 52 53 53 53 53 53 54 54 55 56 57 58 60 62 64 66 67 67 68 68 64 57 55 52 64 69 69 70 70 70 70 69 67 66 66 67 68 68 68 68 68 67 68 68 69 70 70 71 71 71 71 71 71 71 70 70 70 70 70 70 70 70 69 69 69 69 69 68 68 63 67 66 66 65 64 64 64 62 61
51 51 51 52 51 51 51 51 52 51 52 52 53 54 55 55 56 57 59 60 62 64 65 66 67 67 66 59 58 53 62 68 68 69 69 70 70 70 69 68 67 67 68 68 68 69 69 69 69 69 69 70 70 71 71 71 71 70 71 71 70 70 70 69 69 69 70 69 69 68 69 68 67 68 68 66 67 67 66 64 63 63 63 64 62
49 50 50 51 50 50 51 50 50 51 51 52 52 52 53 54 54 55 56 58 61 64 64 65 66 67 67 65 60 59 63 66 68 69 69 69 70 69 69 68 64 62 63 65 68 68 68 68 68 69 69 70 71 71 71 71 71 71 71 71 69 68 69 69 68 68 68 68 68 67 67 67 67 67 66 65 66 65 64 63 63 63 63 63 63
49 48 49 49 49 49 49 49 50 50 51 50 50 50 51 51 52 53 54 55 56 60 65 66 67 67 67 67 65 62 63 65 66 67 68 69 69 69 65 62 62 61 60 62 63 66 67 68 68 68 68 69 69 67 66 66 66 68 68 69 69 68 67 68 68 68 68 68 68 67 67 66 66 66 65 64 64 64 62 62 63 61 61 61 60
48 48 49 48 48 48 48 48 49 49 48 48 49 49 49 50 50 51 52 53 53 54 55 58 61 64 66 67 67 64 64 65 66 66 66 66 62 57 55 55 54 54 55 55 57 60 62 64 64 65 66 66 63 57 55 55 55 57 59 62 65 66 64 65 66 67 67 67 67 66 65 65 65 64 64 63 63 63 62 62 61 61 60 60 60
47 48 48 48 47 47 47 47 47 48 47 48 48 48 48 48 49 50 51 51 51 51 51 52 52 52 52 53 55 58 60 61 59 55 53 52 51 50 50 50 50 49 50 50 51 52 52 53 53 54 55 55 54 52 51 51 52 52 53 54 56 57 58 60 63 64 65 66 66 66 64 63 63 62 63 62 61 60 60 60 60 60 59 58 58
46 47 47 47 46 46 46 46 46 47 47 47 47 47 48 48 48 48 48 48 48 48 48 48 48 49 49 49 50 50 50 49 50 50 50 49 48 48 48 48 47 47 47 47 47 48 48 48 49 50 51 51 51 50 49 50 50 51 51 51 51 52 52 53 59 60 62 63 64 64 63 63 62 61 61 60 60 59 58 58 58 58 57 56 55
46 46 46 46 46 46 45 45 46 46 46 45 46 46 46 46 46 47 47 47 46 46 46 46 46 46 46 47 47 47 47 47 47 47 47 47 47 47 47 47 47 46 46 46 46 46 46 47 47 47 48 48 49 48 48 48 49 49 49 49 47 44 43 47 52 56 54 59 60 60 60 60 59 58 58 58 57 57 56 56 55 54 53 53 52
45 45 45 45 45 45 45 45 45 45 46 45 45 45 45 45 45 46 45 45 45 45 44 44 44 44 44 45 45 44 44 45 44 44 45 44 45 45 45 45 45 45 44 45 45 45 46 46 46 46 46 46 46 46 46 47 47 47 47 46 42 41 42 43 44 48 55 57 56 55 54 54 54 54 55 54 54 53 53 52 52 52 51 51 50
45 44 45 44 44 45 44 44 44 44 44 45 44 44 44 44 44 45 44 43 44 43 43 43 43 43 43 43 44 43 43 43 44 43 44 43 44 44 44 43 43 43 44 44 44 44 44 45 45 45 45 46 45 45 44 44 44 43 41 39 38 38 40 45 50 44 47 50 56 56 55 54 54 54 54 54 55 54 54 53 53 51 52 52 52